Temp
11 11 11 11 9 12 15 13 13 13 12 10 10 10 9 10 9 8 6 7 8 7 8 7 7 7 7 7 6 7 6 6 6 5 5 5 4 4 4 4 5 5 5 5 5 5 5 5 5
11 11 10 10 10 12 14 13 13 11 10 10 10 10 10 10 9 9 8 8 8 7 7 7 7 7 7 7 6 6 6 6 6 5 5 5 4 4 4 4 5 5 4 4 4 5 5 5 5
11 11 10 10 12 13 14 14 12 10 10 10 10 9 9 8 9 9 9 8 8 8 7 7 7 7 7 7 6 6 6 6 6 5 5 4 4 4 4 4 4 4 4 4 4 4 4 4 5
11 10 10 10 12 13 14 12 10 10 10 10 10 9 9 8 9 9 8 8 8 8 7 7 7 7 7 7 7 7 6 6 6 6 5 4 3 4 4 4 4 4 4 4 4 4 4 4 4
10 10 10 10 11 13 13 12 11 11 10 9 9 9 9 9 9 9 8 8 9 8 7 7 7 7 7 7 7 6 6 6 6 5 4 3 3 4 4 4 4 4 4 4 4 4 4 4 4
10 11 10 9 11 13 13 12 11 11 10 9 9 9 9 9 9 8 8 8 9 8 7 7 7 7 7 7 7 6 6 6 6 6 5 3 3 4 4 4 4 4 4 4 4 4 4 4 3
10 12 11 12 13 13 13 12 12 12 11 10 10 9 9 9 8 8 8 8 8 9 8 7 7 7 7 7 7 6 6 6 6 5 5 4 5 4 4 4 4 4 4 4 4 4 4 4 3
11 12 14 14 15 13 13 12 12 12 11 10 10 9 9 9 9 8 8 8 9 8 8 8 7 7 7 7 6 6 6 6 6 5 5 5 4 4 4 4 4 4 4 4 4 4 3 3 3
11 12 13 12 12 12 12 13 12 12 11 11 10 9 10 9 9 8 8 8 9 8 8 8 7 7 7 7 7 6 6 6 6 5 5 4 4 4 4 4 4 4 4 4 4 4 3 3 3
12 12 13 12 13 13 12 13 13 12 12 11 9 10 10 9 9 9 8 8 8 8 7 8 8 7 7 7 7 6 6 6 5 5 5 4 4 4 3 4 3 3 4 4 3 3 3 4 4
12 13 13 13 14 14 14 13 13 12 13 11 11 10 10 9 9 9 8 8 8 7 7 7 7 7 7 7 6 6 6 5 5 5 4 4 4 4 3 3 3 3 3 3 4 4 3 2 2
12 13 13 13 14 13 13 14 13 12 12 12 11 10 10 10 9 9 8 8 8 7 7 7 7 7 7 7 6 6 6 5 5 5 5 4 3 3 3 3 3 4 4 3 3 2 2 2 2
12 13 13 13 13 13 13 13 13 13 12 11 10 10 10 10 10 9 8 8 8 7 7 7 7 7 7 6 6 6 6 5 5 4 4 4 3 3 3 3 3 2 3 2 3 2 2 2 2
12 13 12 13 13 13 12 12 13 13 12 10 10 11 11 10 10 9 9 8 8 7 7 7 6 7 7 7 6 6 5 5 5 4 4 4 3 3 3 2 2 2 2 2 2 2 2 2 2
11 12 12 12 12 13 13 12 13 13 12 11 10 11 11 10 10 9 8 8 8 7 6 6 6 6 7 6 6 6 6 5 5 4 4 4 4 3 2 2 2 2 2 2 2 2 2 2 2
10 11 11 12 12 13 13 13 13 13 12 10 9 8 8 10 10 9 8 8 7 7 6 6 6 6 7 6 6 6 6 5 5 4 4 4 3 3 3 3 3 3 2 2 2 2 2 1 1
10 11 12 12 12 13 13 13 13 12 11 11 10 8 8 8 10 9 9 8 7 7 7 7 7 6 7 6 6 6 5 5 5 5 4 4 4 3 3 3 3 3 2 2 2 2 1 1 1
11 12 12 12 13 13 13 11 13 13 12 12 11 9 8 9 10 9 9 8 7 8 7 7 7 6 7 7 6 6 5 5 5 5 4 4 4 3 3 4 3 3 2 2 2 2 1 1 0
11 12 12 13 13 13 12 12 11 11 12 12 11 10 10 10 9 9 9 8 7 8 7 7 7 7 7 7 6 6 5 5 5 5 5 4 4 3 3 4 3 3 3 2 2 1 1 1 0
11 11 12 13 13 14 13 12 12 13 13 11 12 10 10 11 10 9 9 9 7 8 8 7 7 7 7 6 6 6 5 5 5 5 5 4 4 3 3 3 3 3 3 2 2 2 1 1 0
10 11 11 12 13 13 13 13 12 12 13 13 12 11 7 10 11 10 10 9 8 8 8 8 8 7 6 6 6 6 6 6 5 5 5 4 4 3 3 3 3 3 3 2 2 2 1 1 0
9 10 11 11 11 11 12 12 13 13 13 13 13 12 9 10 11 10 10 10 9 9 8 8 7 7 6 6 6 6 6 5 5 5 5 4 4 4 4 3 3 3 3 3 2 2 1 1 1
9 9 9 9 10 10 11 12 12 12 13 13 13 12 11 11 11 11 11 10 9 9 8 8 7 7 6 6 6 6 6 6 6 5 5 5 4 4 4 4 3 3 3 3 2 2 2 1 1
10 10 9 9 9 10 10 11 11 12 13 14 13 12 12 10 10 9 10 10 10 9 8 8 8 7 7 6 6 6 5 5 5 5 5 5 4 4 4 4 4 3 3 3 3 2 2 1 1
10 10 9 9 9 10 10 10 11 11 13 13 12 12 11 9 10 10 10 10 10 10 9 8 8 8 7 7 6 6 5 5 5 5 5 4 5 4 4 4 4 3 3 3 2 2 2 1 1
10 10 9 9 10 11 11 10 10 11 13 13 12 11 11 9 10 10 10 10 10 10 9 9 8 8 7 7 6 6 6 5 5 5 5 4 4 4 4 4 4 4 3 3 2 2 2 1 1
9 9 9 10 10 10 11 10 12 12 13 13 12 12 12 10 10 9 10 10 10 10 9 9 8 8 7 7 6 6 6 5 5 5 5 4 4 4 4 4 4 4 3 3 2 2 2 1 1
10 9 9 9 8 9 11 11 12 12 12 13 13 12 12 11 10 9 10 10 10 10 9 9 9 8 7 7 7 6 6 6 5 4 5 4 4 4 4 4 4 4 3 3 3 2 2 1 1
9 9 9 9 9 9 10 11 11 12 12 11 12 12 12 11 10 10 9 10 10 9 9 9 9 8 8 7 7 7 6 6 6 5 5 5 4 4 4 4 4 4 4 3 3 2 2 1 1
8 9 9 8 8 10 10 10 11 11 11 11 9 11 11 11 10 9 8 8 9 9 9 9 9 8 8 8 7 7 6 6 6 5 5 5 5 5 4 4 4 3 3 3 3 2 2 1 1
Height
3168 3168 3168 3167 3170 3167 3163 3164 3165 3167 3167 3167 3166 3167 3166 3165 3164 3169 3167 3164 3167 3168 3168 3168 3168 3168 3167 3167 3166 3167 3167 3168 3168 3169 3169 3170 3171 3171 3171 3171 3172 3172 3172 3172 3172 3172 3171 3170 3169
3168 3168 3165 3166 3167 3167 3163 3164 3164 3165 3166 3166 3166 3169 3166 3164 3164 3164 3164 3164 3166 3167 3168 3168 3168 3167 3167 3168 3167 3167 3168 3168 3169 3169 3170 3171 3171 3172 3172 3173 3173 3174 3174 3174 3173 3172 3172 3171 3171
3167 3167 3166 3166 3163 3165 3164 3164 3163 3164 3165 3168 3167 3167 3166 3163 3164 3164 3164 3165 3165 3166 3168 3167 3167 3167 3167 3167 3168 3168 3167 3168 3168 3169 3170 3171 3172 3173 3173 3175 3175 3175 3176 3175 3175 3175 3174 3173 3172
3167 3168 3169 3166 3162 3163 3164 3163 3163 3164 3165 3165 3167 3165 3166 3164 3163 3164 3164 3165 3163 3165 3166 3166 3166 3167 3167 3167 3167 3168 3169 3168 3169 3170 3171 3173 3173 3174 3175 3176 3176 3176 3177 3177 3176 3176 3175 3174 3173
3166 3168 3166 3163 3165 3164 3164 3162 3165 3166 3166 3167 3167 3165 3165 3164 3164 3165 3165 3164 3161 3166 3165 3166 3167 3166 3166 3167 3167 3168 3168 3169 3170 3171 3172 3173 3174 3175 3176 3177 3177 3178 3178 3178 3177 3176 3175 3174 3172
3167 3168 3168 3164 3164 3163 3163 3162 3165 3166 3166 3166 3167 3165 3165 3164 3165 3165 3165 3162 3163 3165 3165 3165 3166 3166 3166 3166 3167 3167 3168 3169 3170 3172 3173 3173 3174 3175 3176 3177 3178 3179 3178 3178 3177 3176 3175 3174 3173
3166 3165 3165 3161 3163 3162 3162 3162 3164 3166 3166 3165 3168 3163 3165 3164 3164 3164 3164 3161 3163 3164 3165 3165 3166 3166 3166 3166 3167 3167 3168 3170 3171 3172 3174 3174 3175 3177 3178 3179 3179 3179 3179 3179 3178 3177 3176 3174 3172
3165 3165 3159 3156 3157 3158 3162 3163 3164 3166 3166 3166 3167 3164 3164 3164 3164 3163 3163 3161 3161 3164 3165 3165 3165 3165 3165 3166 3167 3167 3168 3170 3172 3173 3174 3175 3176 3178 3178 3179 3180 3181 3180 3180 3179 3177 3176 3174 3172
3165 3165 3161 3160 3156 3158 3160 3163 3164 3166 3164 3166 3166 3163 3164 3163 3163 3163 3163 3162 3161 3162 3163 3163 3164 3165 3165 3166 3167 3168 3169 3170 3172 3174 3175 3176 3178 3178 3179 3181 3181 3182 3181 3180 3179 3178 3176 3174 3173
3164 3162 3162 3160 3158 3153 3158 3162 3162 3164 3165 3163 3162 3162 3162 3162 3162 3163 3162 3161 3161 3162 3163 3163 3163 3165 3166 3166 3167 3168 3169 3171 3172 3174 3175 3176 3177 3179 3180 3181 3182 3181 3181 3180 3179 3178 3176 3174 3171
3161 3159 3160 3159 3159 3159 3159 3161 3160 3161 3161 3155 3158 3160 3161 3161 3162 3162 3161 3160 3160 3161 3162 3162 3163 3164 3165 3166 3166 3167 3169 3170 3172 3173 3174 3175 3177 3179 3180 3181 3181 3180 3181 3180 3179 3177 3175 3173 3173
3159 3158 3158 3160 3158 3157 3159 3159 3158 3160 3157 3156 3154 3158 3158 3158 3160 3161 3160 3159 3160 3159 3160 3160 3161 3162 3164 3165 3166 3167 3168 3170 3171 3172 3174 3175 3176 3178 3179 3181 3180 3180 3179 3177 3176 3176 3176 3175 3173
3155 3155 3156 3156 3156 3157 3157 3156 3157 3157 3152 3152 3153 3153 3155 3156 3157 3158 3159 3157 3158 3159 3158 3158 3160 3162 3163 3164 3165 3166 3168 3169 3171 3171 3173 3175 3176 3178 3178 3179 3179 3179 3180 3180 3179 3178 3177 3175 3173
3153 3154 3153 3153 3154 3155 3155 3155 3155 3155 3151 3149 3150 3150 3152 3154 3154 3155 3156 3156 3155 3155 3156 3157 3159 3161 3162 3163 3165 3165 3167 3168 3170 3171 3173 3175 3176 3177 3178 3179 3179 3180 3180 3180 3178 3177 3175 3172 3172
3150 3149 3149 3150 3151 3152 3152 3152 3151 3152 3146 3150 3150 3147 3148 3151 3152 3153 3153 3154 3153 3154 3154 3155 3158 3159 3160 3162 3163 3165 3166 3168 3169 3171 3172 3174 3175 3176 3177 3178 3179 3180 3179 3179 3178 3177 3175 3174 3172
3146 3147 3145 3146 3148 3148 3150 3146 3147 3146 3145 3145 3150 3148 3144 3147 3148 3149 3151 3152 3151 3151 3152 3153 3155 3158 3159 3161 3162 3164 3165 3167 3168 3170 3172 3173 3174 3175 3176 3177 3178 3179 3179 3178 3178 3177 3175 3174 3171
3142 3140 3140 3142 3143 3144 3144 3143 3144 3143 3142 3144 3143 3145 3143 3142 3145 3146 3148 3149 3149 3149 3150 3151 3153 3156 3158 3160 3162 3163 3164 3166 3167 3168 3170 3171 3173 3174 3174 3175 3177 3177 3177 3177 3177 3176 3175 3174 3171
3138 3136 3137 3136 3138 3137 3137 3138 3139 3137 3138 3140 3137 3139 3139 3139 3141 3143 3145 3146 3147 3147 3148 3149 3151 3154 3156 3158 3160 3161 3162 3163 3164 3166 3167 3169 3171 3173 3173 3173 3175 3176 3176 3177 3177 3176 3174 3173 3171
3135 3133 3130 3130 3131 3132 3133 3132 3134 3131 3135 3136 3134 3133 3134 3135 3138 3139 3142 3143 3144 3144 3146 3147 3149 3152 3154 3156 3158 3159 3161 3161 3163 3164 3165 3167 3168 3170 3171 3172 3173 3174 3175 3176 3176 3175 3174 3173 3171
3131 3128 3126 3126 3125 3126 3124 3128 3128 3128 3123 3130 3132 3125 3128 3130 3132 3135 3138 3140 3141 3142 3143 3145 3146 3149 3152 3154 3155 3157 3159 3159 3160 3162 3163 3165 3166 3167 3169 3170 3172 3172 3174 3174 3174 3174 3173 3172 3170
3123 3123 3124 3124 3121 3121 3120 3120 3124 3123 3123 3125 3124 3119 3128 3128 3128 3131 3134 3136 3137 3139 3140 3142 3144 3147 3149 3151 3153 3154 3156 3157 3158 3160 3161 3163 3164 3165 3166 3167 3169 3170 3172 3172 3173 3172 3172 3171 3169
3117 3121 3121 3120 3119 3117 3120 3114 3113 3116 3116 3119 3120 3119 3118 3122 3124 3126 3129 3131 3133 3135 3137 3139 3141 3144 3146 3148 3150 3152 3154 3155 3156 3157 3158 3160 3161 3162 3163 3165 3166 3168 3169 3170 3170 3170 3169 3167 3167
3110 3117 3117 3119 3119 3118 3110 3111 3107 3111 3111 3111 3113 3114 3116 3116 3117 3119 3123 3127 3130 3131 3134 3136 3138 3140 3143 3145 3148 3150 3151 3152 3153 3154 3155 3157 3158 3159 3161 3162 3164 3165 3166 3167 3168 3168 3167 3166 3164
3111 3112 3112 3115 3116 3112 3104 3110 3098 3104 3102 3103 3104 3104 3106 3114 3113 3116 3119 3122 3125 3126 3129 3132 3134 3137 3139 3142 3144 3146 3148 3150 3151 3152 3152 3153 3155 3156 3157 3160 3161 3162 3163 3164 3165 3165 3165 3164 3162
3103 3105 3105 3107 3104 3093 3103 3104 3089 3097 3096 3097 3099 3100 3101 3105 3106 3110 3112 3116 3120 3122 3125 3128 3130 3133 3136 3138 3140 3143 3145 3146 3148 3149 3149 3151 3151 3153 3154 3156 3158 3159 3160 3161 3162 3162 3162 3161 3160
3095 3096 3097 3091 3093 3087 3093 3089 3077 3089 3090 3092 3094 3095 3091 3099 3102 3104 3107 3111 3115 3119 3122 3124 3126 3129 3132 3134 3136 3138 3141 3143 3144 3145 3146 3147 3148 3150 3152 3153 3154 3156 3157 3157 3158 3158 3157 3157 3157
3086 3087 3086 3091 3091 3086 3081 3081 3079 3082 3082 3085 3083 3090 3091 3092 3096 3098 3102 3106 3110 3114 3117 3120 3122 3124 3127 3130 3132 3134 3136 3139 3140 3141 3142 3143 3144 3146 3148 3149 3150 3151 3152 3153 3153 3153 3154 3154 3152
3072 3079 3084 3082 3080 3078 3072 3072 3068 3073 3075 3078 3082 3081 3085 3089 3089 3092 3096 3100 3105 3109 3113 3116 3118 3120 3122 3125 3128 3129 3131 3134 3136 3138 3138 3139 3140 3141 3142 3145 3145 3146 3147 3148 3148 3148 3149 3149 3148
3065 3064 3069 3073 3072 3068 3064 3062 3066 3068 3067 3069 3068 3075 3077 3081 3085 3088 3091 3095 3100 3104 3108 3112 3114 3116 3118 3120 3122 3125 3127 3129 3131 3133 3134 3136 3136 3137 3138 3140 3141 3141 3142 3142 3142 3143 3143 3143 3143
3055 3055 3056 3061 3062 3060 3062 3048 3062 3062 3062 3066 3069 3068 3073 3074 3077 3082 3086 3090 3094 3099 3103 3107 3110 3112 3114 3116 3117 3120 3122 3124 3126 3128 3130 3131 3132 3133 3134 3134 3136 3136 3136 3136 3137 3137 3137 3138 3137
Wind_Speed
1 2 2 2 8 8 6 5 5 4 4 6 5 7 2 3 3 5 6 6 2 5 6 5 3 3 4 3 2 2 3 4 4 5 5 8 8 9 9 8 7 9 11 11 12 12 12 12 12
2 4 5 11 16 11 1 4 6 5 4 4 6 8 2 5 4 3 6 4 3 6 6 5 3 3 4 4 2 2 2 4 5 6 7 9 10 11 10 8 9 11 11 11 11 11 11 12 12
2 3 3 9 10 14 9 6 5 4 6 4 4 6 5 6 3 3 1 2 5 7 4 5 4 4 4 3 3 2 3 4 6 7 9 12 12 11 10 8 10 11 11 10 10 10 10 10 10
6 6 8 17 12 5 4 4 5 6 6 6 7 4 0 5 6 5 0 5 9 4 6 5 5 5 4 3 2 1 2 4 6 8 12 14 12 12 10 10 10 10 10 9 9 9 10 10 11
3 3 13 15 12 1 3 5 7 5 5 4 5 6 3 4 4 4 1 6 7 2 5 4 6 5 4 3 1 1 3 3 6 10 14 14 12 11 11 11 10 9 8 8 9 10 10 11 12
10 14 21 9 9 5 4 7 6 4 3 4 5 5 8 7 5 3 2 7 7 1 3 4 6 4 3 2 1 2 4 6 8 11 13 14 12 12 12 10 9 8 8 9 11 12 12 12 11
14 14 15 19 16 8 5 8 7 5 4 3 6 6 7 6 6 5 0 6 5 3 3 5 4 3 3 1 1 3 6 7 10 11 11 10 11 12 10 8 7 7 7 9 11 13 13 12 12
14 20 23 14 2 8 4 7 7 5 6 6 8 8 6 4 5 5 3 5 7 2 3 4 4 3 2 2 4 5 7 9 11 12 10 10 12 11 10 8 6 5 6 9 11 13 13 13 12
14 17 15 12 7 2 10 7 9 6 5 4 6 7 3 4 4 3 4 8 8 5 4 3 4 4 3 4 5 6 8 10 11 11 10 11 10 9 7 6 3 4 6 9 11 13 13 10 10
17 17 11 10 6 6 10 5 11 6 8 10 9 11 7 5 5 3 6 8 7 6 5 5 4 4 3 4 5 6 8 11 12 11 11 13 12 9 6 3 1 4 7 8 11 13 13 13 16
18 20 11 8 7 5 5 7 13 12 10 21 17 13 8 7 6 6 7 9 7 8 7 7 4 3 3 4 6 7 9 12 13 11 11 11 10 9 6 3 2 5 7 6 8 12 16 17 13
22 20 19 12 6 6 10 9 12 12 8 15 17 11 9 9 10 7 8 11 7 8 8 7 5 4 4 5 7 9 11 13 13 10 8 11 10 8 7 4 5 6 9 14 16 16 14 12 12
23 23 20 12 13 13 13 14 9 9 13 11 21 10 11 15 14 10 8 11 8 7 9 10 7 5 5 7 8 9 11 14 13 11 11 12 12 10 8 4 5 7 9 9 12 12 12 11 11
21 23 22 21 15 15 15 14 13 14 13 13 12 12 13 13 14 12 11 10 11 10 8 10 7 7 7 7 7 9 11 13 14 12 11 11 12 11 7 7 6 6 7 9 12 13 15 16 13
25 24 22 20 21 17 15 17 18 18 21 15 13 18 21 15 14 12 12 10 12 11 9 10 10 9 9 8 9 10 11 12 13 12 11 12 11 11 10 9 8 6 6 8 9 10 11 13 15
22 24 25 24 21 20 19 23 16 23 24 18 15 16 19 16 13 13 12 11 13 13 9 12 13 11 10 9 10 11 11 12 13 12 12 12 11 11 11 9 7 6 6 7 8 10 12 14 16
26 30 29 28 24 26 24 24 18 14 12 18 18 19 21 19 14 15 13 13 13 14 10 12 13 12 11 10 10 11 11 12 12 12 13 13 11 11 12 10 5 7 6 6 7 9 11 12 14
28 27 30 29 27 25 33 28 23 22 18 18 22 22 24 20 14 15 14 15 13 12 10 13 13 13 12 11 12 12 13 14 14 13 14 14 12 11 12 9 7 8 7 6 6 9 10 12 16
29 34 33 31 25 29 27 27 28 26 21 15 23 23 22 18 16 17 17 17 15 10 12 12 11 12 13 12 12 12 12 12 13 14 14 14 13 12 12 9 9 9 7 5 6 7 9 13 15
31 36 36 36 35 26 30 30 29 27 25 26 20 27 27 18 20 21 19 20 18 9 11 13 13 13 13 13 12 12 12 13 14 14 14 15 14 13 13 11 10 10 7 6 6 8 10 14 16
32 33 35 36 35 29 27 34 34 26 23 19 24 24 27 21 20 22 18 21 19 11 12 12 13 13 13 14 14 13 13 13 13 14 11 14 14 14 14 13 11 11 8 8 7 8 11 12 15
33 33 34 31 32 31 26 29 33 27 30 29 31 23 30 25 23 22 17 19 19 11 14 15 14 14 14 15 15 13 11 11 11 13 12 13 14 15 15 13 12 11 10 9 9 9 11 14 14
36 33 28 24 33 38 40 28 28 26 31 34 33 33 26 32 29 25 17 16 16 15 15 16 16 16 16 16 15 15 14 12 12 12 12 12 14 14 14 13 14 12 12 11 11 11 12 14 18
32 28 29 28 30 27 42 36 40 34 39 31 28 40 30 38 34 28 18 17 16 17 16 15 15 16 17 17 17 16 15 14 14 14 14 13 13 14 13 14 14 13 14 12 12 11 13 15 17
30 35 21 20 21 22 34 36 47 35 35 24 25 32 28 44 36 30 25 20 20 18 14 14 12 13 16 18 19 18 17 17 17 16 17 15 15 14 13 15 15 15 15 15 14 13 13 16 17
31 31 24 26 16 21 35 35 53 41 35 28 16 25 17 36 40 33 22 23 20 17 15 13 12 12 13 15 19 20 20 20 20 19 17 17 15 13 15 16 17 17 17 17 17 16 17 18 19
39 38 39 33 35 24 29 31 39 36 33 32 23 22 20 37 35 30 22 28 23 19 14 10 11 13 14 14 16 20 21 22 22 20 17 16 16 17 16 16 19 19 20 21 21 22 22 19 20
46 42 33 36 21 23 31 35 31 32 35 32 28 31 28 25 30 28 28 31 27 20 16 13 10 12 15 14 14 17 19 20 21 22 19 15 18 16 17 16 19 22 24 24 25 25 22 21 20
40 46 35 38 34 18 19 33 40 35 26 26 22 26 25 29 32 34 32 32 30 24 20 14 10 11 14 16 15 17 18 18 20 20 20 16 17 18 19 17 17 22 25 27 28 26 25 23 23
46 43 47 34 37 33 35 42 36 34 21 23 32 26 27 32 32 33 31 34 33 28 24 17 13 9 11 13 14 15 17 17 19 19 19 19 19 19 21 22 21 23 26 28 29 28 28 26 27
Wind_Direction
227 155 297 343 282 275 276 107 102 77 105 74 75 77 49 15 46 133 151 249 24 195 212 228 244 296 315 328 355 48 80 91 99 101 116 110 111 106 109 103 73 74 70 63 53 47 39 31 21
227 223 330 301 256 299 271 103 117 116 98 101 85 50 35 353 356 324 273 315 202 217 223 230 256 299 317 319 318 72 83 102 104 125 124 117 118 120 125 106 85 82 73 63 54 42 32 23 16
184 217 324 260 269 255 88 105 138 109 104 89 14 113 162 279 297 314 26 172 216 224 229 245 270 300 310 317 323 1 93 100 121 134 130 120 120 128 128 105 90 80 70 59 47 35 27 19 11
186 14 271 263 300 332 46 125 135 109 76 123 112 319 186 279 298 7 161 193 229 214 222 239 269 290 298 311 313 17 73 121 134 137 128 126 139 142 134 107 93 81 70 55 40 28 22 18 12
85 223 272 289 268 269 135 138 136 118 96 89 80 144 329 335 342 354 268 226 268 105 219 251 274 285 293 305 311 58 108 144 145 144 136 137 148 141 119 109 100 87 69 51 34 21 14 13 10
270 264 266 320 315 253 171 161 153 142 132 123 133 97 37 24 27 351 307 260 309 300 238 255 267 276 293 304 288 136 142 156 151 153 149 139 143 133 120 113 100 81 60 40 27 20 16 14 9
257 268 273 268 253 196 170 169 176 172 166 175 166 205 360 348 23 17 230 288 329 357 268 257 265 284 297 257 197 159 156 160 155 155 155 149 138 126 122 113 95 73 49 34 22 16 12 10 9
257 282 281 284 273 139 165 177 181 195 175 158 156 274 247 345 11 360 5 291 303 357 294 270 271 268 235 203 184 170 159 158 159 156 158 158 147 143 138 123 99 62 33 21 16 12 8 5 8
257 266 302 297 272 187 186 189 191 195 171 175 186 235 265 285 360 348 310 301 333 298 309 291 267 269 227 199 189 174 165 163 161 161 163 159 152 152 142 122 92 40 18 12 11 8 7 359 17
241 257 255 288 237 51 201 214 214 217 213 181 206 251 264 270 302 306 297 312 331 286 287 289 288 264 240 202 187 178 170 167 165 167 173 171 167 163 154 144 68 9 3 4 7 6 2 3 10
240 252 272 319 257 241 262 241 219 234 225 221 270 241 242 267 301 281 284 298 330 294 263 270 282 261 229 200 192 180 174 174 171 174 183 178 174 175 178 181 305 340 355 326 358 8 6 10 2
247 250 265 266 306 268 256 261 256 238 254 255 256 227 231 281 282 280 273 286 324 286 253 247 248 243 216 203 194 183 178 177 183 187 182 182 188 187 207 211 251 286 344 0 355 3 2 358 353
244 251 257 278 262 271 259 257 275 250 229 255 205 233 269 278 269 272 263 281 304 288 238 234 230 241 227 214 199 192 183 184 191 188 187 193 197 210 233 266 299 342 338 346 345 354 349 360 356
250 256 256 256 269 267 253 248 253 244 255 183 215 272 276 266 265 265 273 280 295 305 258 232 220 226 225 225 210 196 195 195 196 197 199 207 208 217 221 242 269 293 330 337 345 346 353 359 2
257 264 256 251 255 258 250 252 249 241 205 204 224 259 264 261 259 257 266 273 284 310 265 228 220 223 226 216 214 208 208 202 206 208 211 218 214 224 226 239 260 295 311 329 341 344 357 356 358
255 254 257 250 250 249 242 255 253 239 220 229 225 204 229 253 253 245 255 261 275 303 248 225 221 223 229 219 216 213 214 210 213 215 220 226 224 228 238 249 267 284 297 322 334 356 2 360 0
249 247 246 253 248 248 240 241 244 209 223 217 221 203 209 232 242 243 242 251 270 298 241 226 224 226 231 227 228 220 215 218 221 217 223 229 232 233 241 248 261 270 290 317 334 350 359 2 6
239 241 246 253 248 241 238 233 228 242 224 219 218 207 215 231 241 245 237 243 261 291 228 228 222 224 230 229 229 224 221 220 221 221 222 229 232 235 247 257 249 268 284 303 331 345 353 358 1
245 252 253 250 246 250 242 230 236 253 213 214 221 217 222 225 230 236 231 239 245 272 226 227 224 221 229 232 235 238 232 235 233 232 231 221 229 233 246 260 252 265 273 285 312 336 352 357 354
247 253 256 262 260 247 230 242 240 240 247 221 244 214 223 223 226 231 237 237 239 258 222 220 213 214 225 228 232 234 231 232 232 233 237 223 228 229 239 251 251 260 262 272 300 326 339 345 347
248 255 259 263 269 280 260 238 249 242 251 250 224 239 225 236 238 237 244 237 240 251 227 219 212 214 223 226 231 236 234 233 237 239 243 230 231 229 234 244 247 256 254 265 287 314 329 335 345
255 246 254 278 281 283 255 265 254 248 257 242 236 225 207 233 237 231 240 239 244 250 221 216 214 217 222 226 231 237 237 242 238 243 248 234 234 232 237 239 248 250 256 261 280 302 316 326 334
251 248 266 269 255 270 267 274 263 252 247 247 234 202 223 244 247 241 241 242 239 243 232 227 225 223 225 229 230 232 237 241 247 254 258 249 242 238 242 245 247 248 253 262 274 291 304 312 321
253 250 252 256 257 262 255 260 266 254 256 252 220 220 233 236 237 229 228 226 229 235 228 226 232 231 230 232 233 235 238 244 256 266 270 261 251 247 244 247 250 251 255 263 276 290 308 313 318
242 246 244 244 235 247 246 253 257 256 255 260 242 243 256 213 224 227 220 226 222 221 217 223 231 233 233 235 240 241 239 248 258 269 272 261 258 256 254 250 250 253 257 268 274 288 296 303 309
244 246 227 241 243 250 246 229 251 246 252 259 225 229 204 206 230 225 229 222 215 211 213 224 235 235 232 234 242 248 247 250 257 269 276 268 255 270 267 261 256 258 262 270 272 279 286 297 308
244 242 242 250 253 270 259 267 254 253 248 242 232 230 195 206 219 225 240 212 206 213 215 215 228 236 240 236 234 243 248 248 255 264 276 263 263 273 267 268 265 263 265 268 270 274 285 289 299
234 238 244 247 243 246 253 252 252 236 248 241 230 207 206 205 215 227 239 207 206 213 204 206 229 243 249 248 238 238 247 249 251 253 269 263 265 266 273 277 269 268 269 270 271 274 277 282 292
265 225 225 246 236 241 253 250 249 260 230 251 231 220 218 210 219 231 222 209 209 212 207 208 218 248 254 261 259 252 254 256 254 256 263 264 260 262 273 286 280 277 273 271 272 273 275 276 282
258 260 221 228 246 239 245 254 247 258 278 240 232 231 222 217 215 221 210 212 212 213 210 208 216 237 260 258 259 255 257 258 258 260 263 260 260 264 269 283 288 284 284 276 275 273 275 273 279